,,,PA_Meas_PMT16A,,PR_Meas_QMR101_102,,RH_Meas_QMH101,,SR_Meas_QMS101,,TA_Meas_QMH101,,GenWind,,GenWind,
date,time,status,PA,status,PR,status,RH,status,SR,status,TA,status,DirAvg,status,SpdAvg,
2011-10-03, 00:00:05,VALID,999.825,VALID,0,VALID,89.4649,VALID,0,VALID,24.8332,VALID,156,VALID,1.10898,
2011-10-03, 00:01:05,VALID,999.818,VALID,0,VALID,89.8235,VALID,0,VALID,24.7746,VALID,156,VALID,1.13594,
2011-10-03, 00:02:05,VALID,999.774,VALID,0,VALID,89.9609,VALID,0,VALID,24.677,VALID,156,VALID,1.09844,
2011-10-03, 00:03:05,VALID,999.761,VALID,0,VALID,90.0448,VALID,0,VALID,24.6575,VALID,156,VALID,1.23125,
2011-10-03, 00:04:05,VALID,999.766,VALID,0,VALID,90.0143,VALID,0,VALID,24.638,VALID,156,VALID,1.13828,
2011-10-03, 00:05:05,VALID,999.748,VALID,0,VALID,89.9685,VALID,0,VALID,24.6184,VALID,156,VALID,1.1832,
2011-10-03, 00:06:05,VALID,999.738,VALID,0,VALID,89.8769,VALID,0,VALID,24.5989,VALID,156,VALID,0.890625,
2011-10-03, 00:07:05,VALID,999.769,VALID,0,VALID,89.7777,VALID,0,VALID,24.5794,VALID,156,VALID,0.955469,
2011-10-03, 00:08:05,VALID,999.807,VALID,0,VALID,89.8006,VALID,0,VALID,24.5385,VALID,156,VALID,0.907812,
2011-10-03, 00:09:05,VALID,999.802,VALID,0,VALID,89.8388,VALID,0,VALID,24.5794,VALID,156,VALID,0.812891,
2011-10-03, 00:10:05,VALID,999.83,VALID,0,VALID,89.6023,VALID,0,VALID,24.5794,VALID,156,VALID,0.976172,
2011-10-03, 00:11:05,VALID,999.842,VALID,0,VALID,89.5336,VALID,0,VALID,24.5989,VALID,156,VALID,0.950391,
2011-10-03, 00:12:05,VALID,999.871,VALID,0,VALID,89.5794,VALID,0,VALID,24.638,VALID,156,VALID,0.890625,
2011-10-03, 00:13:05,VALID,999.826,VALID,0,VALID,89.5107,VALID,0,VALID,24.6556,VALID,156,VALID,0.842969,
2011-10-03, 00:14:05,VALID,999.798,VALID,0,VALID,89.2589,VALID,0,VALID,24.677,VALID,156,VALID,1.02539,
2011-10-03, 00:15:05,VALID,999.771,VALID,0,VALID,89.0606,VALID,0,VALID,24.677,VALID,156,VALID,0.879297,
2011-10-03, 00:16:05,VALID,999.74,VALID,0,VALID,89.0148,VALID,0,VALID,24.6575,VALID,156,VALID,1.01797,
2011-10-03, 00:17:04,VALID,999.743,VALID,0,VALID,89.0834,VALID,0,VALID,24.6361,VALID,156,VALID,1.08906,
2011-10-03, 00:18:04,VALID,999.733,VALID,0,VALID,89.0682,VALID,0,VALID,24.6575,VALID,156,VALID,1.06484,
2011-10-03, 00:19:04,VALID,999.758,VALID,0,VALID,89.175,VALID,0,VALID,24.6575,VALID,156,VALID,1.03516,
2011-10-03, 00:20:04,VALID,999.754,VALID,0,VALID,89.2589,VALID,0,VALID,24.6361,VALID,156,VALID,1.32187,
2011-10-03, 00:21:04,VALID,999.735,VALID,0,VALID,89.2894,VALID,0,VALID,24.677,VALID,156,VALID,0.978125,
2011-10-03, 00:22:04,VALID,999.756,VALID,0,VALID,89.114,VALID,0,VALID,24.7356,VALID,156,VALID,1.12422,
2011-10-03, 00:23:04,VALID,999.758,VALID,0,VALID,89.0224,VALID,0,VALID,24.7746,VALID,156,VALID,0.932813,
2011-10-03, 00:24:04,VALID,999.775,VALID,0,VALID,88.9156,VALID,0,VALID,24.7746,VALID,156,VALID,1.16172,
2011-10-03, 00:25:04,VALID,999.744,VALID,0,VALID,88.7172,VALID,0,VALID,24.8117,VALID,156,VALID,1.21289,
2011-10-03, 00:26:04,VALID,999.725,VALID,0,VALID,88.4426,VALID,0,VALID,24.8313,VALID,170,VALID,1.24961,
2011-10-03, 00:27:04,VALID,999.731,VALID,0,VALID,88.0687,VALID,0,VALID,24.8703,VALID,168,VALID,1.25117,
2011-10-03, 00:28:04,VALID,999.691,VALID,0,VALID,87.7635,VALID,0,VALID,24.8898,VALID,168,VALID,1.37266,
2011-10-03, 00:29:04,VALID,999.699,VALID,0,VALID,87.4736,VALID,0,VALID,24.9503,VALID,169,VALID,1.26094,
2011-10-03, 00:30:04,VALID,999.667,VALID,0,VALID,87.115,VALID,0,VALID,25.0088,VALID,169,VALID,1.34883,
2011-10-03, 00:31:04,VALID,999.611,VALID,0,VALID,86.8632,VALID,0,VALID,25.0479,VALID,169,VALID,1.3332,
2011-10-03, 00:32:04,VALID,999.627,VALID,0,VALID,86.5809,VALID,0,VALID,25.0655,VALID,169,VALID,1.42695,
2011-10-03, 00:33:04,VALID,999.596,VALID,0,VALID,86.3444,VALID,0,VALID,25.0869,VALID,169,VALID,1.18711,
2011-10-03, 00:34:04,VALID,999.634,VALID,0,VALID,86.3292,VALID,0,VALID,25.0869,VALID,169,VALID,1.20508,
2011-10-03, 00:35:04,VALID,999.59,VALID,0,VALID,86.3292,VALID,0,VALID,25.046,VALID,169,VALID,1.30195,
2011-10-03, 00:36:04,VALID,999.61,VALID,0,VALID,86.3063,VALID,0,VALID,25.126,VALID,169,VALID,1.46016,
2011-10-03, 00:37:04,VALID,999.602,VALID,0,VALID,86.1308,VALID,0,VALID,25.1045,VALID,169,VALID,1.22227,
2011-10-03, 00:38:04,VALID,999.641,VALID,0,VALID,86.0621,VALID,0,VALID,25.165,VALID,169,VALID,1.42773,
2011-10-03, 00:39:04,VALID,999.585,VALID,0,VALID,85.9095,VALID,0,VALID,25.1631,VALID,169,VALID,1.31992,
2011-10-03, 00:40:04,VALID,999.602,VALID,0,VALID,85.7188,VALID,0,VALID,25.2021,VALID,169,VALID,1.27305,
2011-10-03, 00:41:04,VALID,999.592,VALID,0,VALID,85.5891,VALID,0,VALID,25.2431,VALID,169,VALID,1.09492,
2011-10-03, 00:42:04,VALID,999.583,VALID,0,VALID,85.4823,VALID,0,VALID,25.2412,VALID,169,VALID,1.26094,
2011-10-03, 00:43:04,VALID,999.6,VALID,0,VALID,85.2534,VALID,0,VALID,25.3017,VALID,169,VALID,0.892187,
2011-10-03, 00:44:04,VALID,999.571,VALID,0,VALID,85.1771,VALID,0,VALID,25.3407,VALID,169,VALID,0.89375,
2011-10-03, 00:45:04,VALID,999.603,VALID,0,VALID,85.0397,VALID,0,VALID,25.3193,VALID,169,VALID,0.916016,
2011-10-03, 00:46:04,VALID,999.62,VALID,0,VALID,84.8795,VALID,0,VALID,25.3388,VALID,169,VALID,0.715625,
2011-10-03, 00:47:04,VALID,999.624,VALID,0,VALID,84.7651,VALID,0,VALID,25.2802,VALID,169,VALID,0.156641,
2011-10-03, 00:48:04,VALID,999.611,VALID,0,VALID,85.406,VALID,0,VALID,25.1455,VALID,169,VALID,0.630859,
2011-10-03, 00:49:04,VALID,999.581,VALID,0,VALID,86.4665,VALID,0,VALID,24.9093,VALID,169,VALID,0.564062,
2011-10-03, 00:50:04,VALID,999.57,VALID,0,VALID,87.3897,VALID,0,VALID,24.7551,VALID,169,VALID,0.65625,
2011-10-03, 00:51:04,VALID,999.558,VALID,0,VALID,87.9543,VALID,0,VALID,24.6166,VALID,169,VALID,0.737109,
2011-10-03, 00:52:04,VALID,999.55,VALID,0,VALID,88.6714,VALID,0,VALID,24.5404,VALID,169,VALID,0.897656,
2011-10-03, 00:53:04,VALID,999.518,VALID,0,VALID,89.1063,VALID,0,VALID,24.5013,VALID,315,VALID,0.847266,
2011-10-03, 00:54:04,VALID,999.51,VALID,0,VALID,89.3886,VALID,0,VALID,24.4214,VALID,315,VALID,0.513281,
2011-10-03, 00:55:04,VALID,999.5,VALID,0,VALID,89.6251,VALID,0,VALID,24.4019,VALID,315,VALID,0.497266,
2011-10-03, 00:56:04,VALID,999.541,VALID,0,VALID,89.7014,VALID,0,VALID,24.3433,VALID,315,VALID,0.447656,
2011-10-03, 00:57:04,VALID,999.553,VALID,0,VALID,89.9303,VALID,0,VALID,24.3238,VALID,315,VALID,0.601172,
2011-10-03, 00:58:04,VALID,999.538,VALID,0,VALID,90.0448,VALID,0,VALID,24.3452,VALID,315,VALID,0.391016,
2011-10-03, 00:59:04,VALID,999.546,VALID,0,VALID,90.0753,VALID,0,VALID,24.3647,VALID,302,VALID,0.659375,
2011-10-03, 01:00:04,VALID,999.539,VALID,0,VALID,90.0295,VALID,0,VALID,24.3629,VALID,263,VALID,0.6125,
2011-10-03, 01:01:04,VALID,999.547,VALID,0,VALID,89.8998,VALID,0,VALID,24.3842,VALID,240,VALID,0.758203,
2011-10-03, 01:02:04,VALID,999.504,VALID,0,VALID,89.8006,VALID,0,VALID,24.3824,VALID,240,VALID,0.192578,
2011-10-03, 01:03:04,VALID,999.494,VALID,0,VALID,89.7091,VALID,0,VALID,24.4037,VALID,240,VALID,0.391016,
2011-10-03, 01:04:04,VALID,999.493,VALID,0,VALID,89.732,VALID,0,VALID,24.3452,VALID,240,VALID,0.200781,
2011-10-03, 01:05:04,VALID,999.506,VALID,0,VALID,89.7854,VALID,0,VALID,24.3257,VALID,240,VALID,0.2625,
2011-10-03, 01:06:04,VALID,999.506,VALID,0,VALID,89.8006,VALID,0,VALID,24.2848,VALID,240,VALID,0.248047,
2011-10-03, 01:07:04,VALID,999.491,VALID,0,VALID,89.793,VALID,0,VALID,24.2866,VALID,240,VALID,0.372266,
2011-10-03, 01:08:04,VALID,999.439,VALID,0,VALID,89.6633,VALID,0,VALID,24.2671,VALID,240,VALID,0.0046875,
2011-10-03, 01:09:04,VALID,999.455,VALID,0,VALID,89.6557,VALID,0,VALID,24.2476,VALID,240,VALID,0.368359,
2011-10-03, 01:10:04,VALID,999.435,VALID,0,VALID,89.648,VALID,0,VALID,24.2086,VALID,235,VALID,0.632422,
2011-10-03, 01:11:04,VALID,999.428,VALID,0,VALID,89.3734,VALID,0,VALID,24.1677,VALID,235,VALID,0.457422,
2011-10-03, 01:12:04,VALID,999.399,VALID,0,VALID,89.1216,VALID,0,VALID,24.1872,VALID,235,VALID,0.190234,
2011-10-03, 01:13:04,VALID,999.405,VALID,0,VALID,88.9843,VALID,0,VALID,24.2086,VALID,236,VALID,0.186328,
2011-10-03, 01:14:04,VALID,999.394,VALID,0,VALID,89.1445,VALID,0.104696,VALID,24.1482,VALID,237,VALID,0.536328,
2011-10-03, 01:15:04,VALID,999.411,VALID,0,VALID,89.4039,VALID,0,VALID,24.0506,VALID,237,VALID,0.792578,
2011-10-03, 01:16:04,VALID,999.414,VALID,0,VALID,90.1745,VALID,0,VALID,23.9939,VALID,237,VALID,0.742188,
2011-10-03, 01:17:04,VALID,999.413,VALID,0,VALID,90.8459,VALID,0,VALID,23.9531,VALID,237,VALID,0.692578,
2011-10-03, 01:18:04,VALID,999.425,VALID,0,VALID,91.2884,VALID,0,VALID,23.9354,VALID,237,VALID,0.735156,
2011-10-03, 01:19:04,VALID,999.415,VALID,0,VALID,91.586,VALID,0,VALID,23.914,VALID,237,VALID,0.621094,
2011-10-03, 01:20:04,VALID,999.431,VALID,0,VALID,91.8072,VALID,0,VALID,23.9354,VALID,237,VALID,0.55,
2011-10-03, 01:21:04,VALID,999.454,VALID,0,VALID,91.8606,VALID,0,VALID,23.9159,VALID,237,VALID,0.864844,
2011-10-03, 01:22:04,VALID,999.418,VALID,0,VALID,91.9598,VALID,0,VALID,23.8945,VALID,237,VALID,0.764844,
2011-10-03, 01:23:04,VALID,999.401,VALID,0,VALID,91.7767,VALID,0,VALID,23.8555,VALID,237,VALID,0.333594,
2011-10-03, 01:24:04,VALID,999.387,VALID,0,VALID,91.5631,VALID,0,VALID,23.8183,VALID,237,VALID,0.129297,
2011-10-03, 01:25:04,VALID,999.384,VALID,0,VALID,91.3342,VALID,0,VALID,23.7988,VALID,237,VALID,0.128906,
2011-10-03, 01:26:04,VALID,999.38,VALID,0,VALID,91.2045,VALID,0,VALID,23.7597,VALID,237,VALID,0,
2011-10-03, 01:27:04,VALID,999.323,VALID,0,VALID,91.0748,VALID,0,VALID,23.7207,VALID,235,VALID,0.458984,
2011-10-03, 01:28:04,VALID,999.297,VALID,0,VALID,91.38,VALID,0,VALID,23.7384,VALID,235,VALID,0.5125,
2011-10-03, 01:29:04,VALID,999.319,VALID,0,VALID,91.6088,VALID,0,VALID,23.7384,VALID,235,VALID,0.665234,
2011-10-03, 01:30:04,VALID,999.342,VALID,0,VALID,91.5936,VALID,0,VALID,23.7402,VALID,235,VALID,0.727344,
2011-10-03, 01:31:04,VALID,999.273,VALID,0,VALID,91.6088,VALID,0,VALID,23.6817,VALID,235,VALID,0.892969,
2011-10-03, 01:32:04,VALID,999.298,VALID,0,VALID,91.7843,VALID,0,VALID,23.7012,VALID,235,VALID,0.808984,
2011-10-03, 01:33:04,VALID,999.307,VALID,0,VALID,91.914,VALID,0.104696,VALID,23.6604,VALID,235,VALID,0.486328,
2011-10-03, 01:34:04,VALID,999.278,VALID,0,VALID,91.8683,VALID,0,VALID,23.6214,VALID,235,VALID,0.458984,
2011-10-03, 01:35:04,VALID,999.237,VALID,0,VALID,91.7538,VALID,0,VALID,23.5433,VALID,235,VALID,0.49375,
2011-10-03, 01:36:04,VALID,999.263,VALID,0,VALID,91.7843,VALID,0,VALID,23.4866,VALID,235,VALID,0.548828,
2011-10-03, 01:37:04,VALID,999.237,VALID,0,VALID,91.9445,VALID,0,VALID,23.4475,VALID,235,VALID,0.534375,
2011-10-03, 01:38:04,VALID,999.222,VALID,0,VALID,92.1506,VALID,0,VALID,23.4493,VALID,235,VALID,0.311719,
2011-10-03, 01:39:04,VALID,999.231,VALID,0,VALID,92.2955,VALID,0,VALID,23.4298,VALID,235,VALID,0.0964844,
2011-10-03, 01:40:04,VALID,999.203,VALID,0,VALID,92.4023,VALID,0,VALID,23.3695,VALID,235,VALID,0.379297,
2011-10-03, 01:41:04,VALID,999.171,VALID,0,VALID,92.4939,VALID,0,VALID,23.35,VALID,235,VALID,1.00547,
2011-10-03, 01:42:04,VALID,999.169,VALID,0,VALID,92.5931,VALID,0,VALID,23.35,VALID,235,VALID,0.742188,
2011-10-03, 01:43:04,VALID,999.176,VALID,0,VALID,92.7075,VALID,0,VALID,23.3695,VALID,235,VALID,0.814453,
2011-10-03, 01:44:04,VALID,999.142,VALID,0,VALID,92.7685,VALID,0,VALID,23.35,VALID,235,VALID,0.850391,
2011-10-03, 01:45:04,VALID,999.123,VALID,0,VALID,92.7838,VALID,0,VALID,23.3305,VALID,127,VALID,0.804688,
2011-10-03, 01:46:04,VALID,999.126,VALID,0,VALID,92.7685,VALID,0,VALID,23.2915,VALID,127,VALID,0.678125,
2011-10-03, 01:47:04,VALID,999.128,VALID,0,VALID,92.7304,VALID,0,VALID,23.2932,VALID,127,VALID,0.579297,
2011-10-03, 01:48:04,VALID,999.121,VALID,0,VALID,92.738,VALID,0,VALID,23.2542,VALID,127,VALID,0.560547,
2011-10-03, 01:49:04,VALID,999.107,VALID,0,VALID,92.7838,VALID,0,VALID,23.2524,VALID,127,VALID,0.666016,
2011-10-03, 01:50:04,VALID,999.119,VALID,0,VALID,92.8601,VALID,0,VALID,23.2737,VALID,127,VALID,0.546484,
2011-10-03, 01:51:04,VALID,999.082,VALID,0,VALID,92.944,VALID,0,VALID,23.2524,VALID,127,VALID,0.410937,
2011-10-03, 01:52:04,VALID,999.119,VALID,0,VALID,92.9898,VALID,0,VALID,23.2737,VALID,127,VALID,0.261328,
2011-10-03, 01:53:04,VALID,999.124,VALID,0,VALID,93.028,VALID,0,VALID,23.2134,VALID,127,VALID,0.391016,
2011-10-03, 01:54:04,VALID,999.119,VALID,0,VALID,93.0585,VALID,0,VALID,23.2134,VALID,127,VALID,0.339844,
2011-10-03, 01:55:04,VALID,999.093,VALID,0,VALID,93.0661,VALID,0,VALID,23.1744,VALID,127,VALID,0.354688,
2011-10-03, 01:56:04,VALID,999.124,VALID,0,VALID,93.0661,VALID,0,VALID,23.1744,VALID,127,VALID,0.355469,
2011-10-03, 01:57:04,VALID,999.12,VALID,0,VALID,93.089,VALID,0,VALID,23.1354,VALID,127,VALID,0.299609,
2011-10-03, 01:58:04,VALID,999.121,VALID,0,VALID,93.1195,VALID,0,VALID,23.1566,VALID,127,VALID,0.291797,
2011-10-03, 01:59:04,VALID,999.082,VALID,0,VALID,93.1729,VALID,0,VALID,23.1354,VALID,127,VALID,0.324609,
2011-10-03, 02:00:04,VALID,999.071,VALID,0,VALID,93.2187,VALID,0,VALID,23.1549,VALID,127,VALID,0.253125,
2011-10-03, 02:01:04,VALID,999.033,VALID,0,VALID,93.2721,VALID,0,VALID,23.1744,VALID,127,VALID,0.142578,
2011-10-03, 02:02:04,VALID,999.022,VALID,0,VALID,93.3103,VALID,0,VALID,23.2152,VALID,127,VALID,0.0113281,
2011-10-03, 02:03:04,VALID,998.989,VALID,0,VALID,93.3331,VALID,0,VALID,23.1939,VALID,127,VALID,0,
2011-10-03, 02:04:04,VALID,998.974,VALID,0,VALID,93.3866,VALID,0,VALID,23.2152,VALID,127,VALID,0,
2011-10-03, 02:05:04,VALID,998.99,VALID,0,VALID,93.3789,VALID,0,VALID,23.1744,VALID,127,VALID,0,
2011-10-03, 02:06:04,VALID,999.032,VALID,0,VALID,93.4323,VALID,0,VALID,23.1549,VALID,127,VALID,0,
2011-10-03, 02:07:04,VALID,999.051,VALID,0,VALID,93.4323,VALID,0,VALID,23.1531,VALID,127,VALID,0.0113281,
2011-10-03, 02:08:04,VALID,999.064,VALID,0,VALID,93.4705,VALID,0,VALID,23.1939,VALID,127,VALID,0,
2011-10-03, 02:09:04,VALID,999.032,VALID,0,VALID,93.4857,VALID,0,VALID,23.1531,VALID,127,VALID,0,
2011-10-03, 02:10:04,VALID,999.048,VALID,0,VALID,93.5086,VALID,0,VALID,23.1726,VALID,127,VALID,0.287109,
2011-10-03, 02:11:04,VALID,999.044,VALID,0,VALID,93.5239,VALID,0,VALID,23.2134,VALID,127,VALID,0.428516,
2011-10-03, 02:12:04,VALID,999.047,VALID,0,VALID,93.5544,VALID,0,VALID,23.2134,VALID,127,VALID,0.380859,
2011-10-03, 02:13:04,VALID,999.083,VALID,0,VALID,93.5773,VALID,0,VALID,23.1726,VALID,127,VALID,0.380469,
2011-10-03, 02:14:04,VALID,999.09,VALID,0,VALID,93.562,VALID,0.104696,VALID,23.1726,VALID,127,VALID,0.377344,
2011-10-03, 02:15:04,VALID,999.091,VALID,0,VALID,93.6078,VALID,0,VALID,23.1744,VALID,127,VALID,0.348437,
2011-10-03, 02:16:04,VALID,999.086,VALID,0,VALID,93.5773,VALID,0,VALID,23.1141,VALID,127,VALID,0.438672,
2011-10-03, 02:17:04,VALID,999.117,VALID,0,VALID,93.6154,VALID,0,VALID,23.1159,VALID,127,VALID,0.233203,
2011-10-03, 02:18:04,VALID,999.109,VALID,0,VALID,93.6154,VALID,0,VALID,23.1159,VALID,127,VALID,0.329688,
2011-10-03, 02:19:04,VALID,999.156,VALID,0,VALID,93.6307,VALID,0,VALID,23.1141,VALID,127,VALID,0.208203,
2011-10-03, 02:20:04,VALID,999.109,VALID,0,VALID,93.646,VALID,0,VALID,23.1141,VALID,127,VALID,0.194531,
2011-10-03, 02:21:04,VALID,999.082,VALID,0,VALID,93.6688,VALID,0,VALID,23.0946,VALID,127,VALID,0.189063,
2011-10-03, 02:22:04,VALID,999.086,VALID,0,VALID,93.6917,VALID,0,VALID,23.0361,VALID,127,VALID,0.015625,
2011-10-03, 02:23:04,VALID,999.059,VALID,0,VALID,93.6688,VALID,0,VALID,23.0361,VALID,127,VALID,0.0757812,
2011-10-03, 02:24:04,VALID,999.064,VALID,0,VALID,93.6917,VALID,0,VALID,23.0166,VALID,127,VALID,0,
2011-10-03, 02:25:04,VALID,999.094,VALID,0,VALID,93.6994,VALID,0,VALID,23.0378,VALID,127,VALID,0,
2011-10-03, 02:26:04,VALID,999.077,VALID,0,VALID,93.7146,VALID,0,VALID,23.0769,VALID,127,VALID,0,
2011-10-03, 02:27:04,VALID,999.058,VALID,0,VALID,93.7223,VALID,0,VALID,23.0769,VALID,127,VALID,0,
2011-10-03, 02:28:04,VALID,999.046,VALID,0,VALID,93.7375,VALID,0,VALID,23.0361,VALID,127,VALID,0,
2011-10-03, 02:29:04,VALID,999.021,VALID,0,VALID,93.7299,VALID,0,VALID,23.0573,VALID,127,VALID,0,
2011-10-03, 02:30:04,VALID,998.989,VALID,0,VALID,93.7451,VALID,0,VALID,23.0751,VALID,127,VALID,0,
2011-10-03, 02:31:04,VALID,998.985,VALID,0,VALID,93.7528,VALID,0,VALID,23.0946,VALID,127,VALID,0,
2011-10-03, 02:32:04,VALID,998.949,VALID,0,VALID,93.7604,VALID,0,VALID,23.1336,VALID,127,VALID,0.160156,
2011-10-03, 02:33:04,VALID,998.941,VALID,0,VALID,93.8062,VALID,0,VALID,23.1531,VALID,127,VALID,0.137891,
2011-10-03, 02:34:04,VALID,998.916,VALID,0,VALID,93.8138,VALID,0,VALID,23.1531,VALID,127,VALID,0.390625,
2011-10-03, 02:35:04,VALID,998.907,VALID,0,VALID,93.8214,VALID,0,VALID,23.1336,VALID,143,VALID,1.0625,
2011-10-03, 02:36:04,VALID,998.873,VALID,0,VALID,93.8214,VALID,0,VALID,23.1141,VALID,143,VALID,0.989453,
2011-10-03, 02:37:04,VALID,998.866,VALID,0,VALID,93.8138,VALID,0,VALID,23.2347,VALID,143,VALID,0.992578,
2011-10-03, 02:38:04,VALID,998.851,VALID,0,VALID,93.8062,VALID,0,VALID,23.2524,VALID,143,VALID,1.05391,
2011-10-03, 02:39:04,VALID,998.846,VALID,0,VALID,93.8443,VALID,0,VALID,23.2719,VALID,143,VALID,1.075,
2011-10-03, 02:40:04,VALID,998.809,VALID,0,VALID,93.8138,VALID,0,VALID,23.3305,VALID,143,VALID,0.976172,
2011-10-03, 02:41:04,VALID,998.805,VALID,0,VALID,93.8367,VALID,0,VALID,23.3305,VALID,143,VALID,1.13828,
2011-10-03, 02:42:04,VALID,998.8,VALID,0,VALID,93.7909,VALID,0,VALID,23.35,VALID,143,VALID,1.08633,
2011-10-03, 02:43:04,VALID,998.8,VALID,0,VALID,93.7451,VALID,0,VALID,23.3695,VALID,143,VALID,0.951953,
2011-10-03, 02:44:04,VALID,998.776,VALID,0,VALID,93.6307,VALID,0,VALID,23.3695,VALID,143,VALID,1.00352,
2011-10-03, 02:45:04,VALID,998.808,VALID,0,VALID,93.4934,VALID,0,VALID,23.3908,VALID,143,VALID,1.32344,
2011-10-03, 02:46:04,VALID,998.797,VALID,0,VALID,93.295,VALID,0,VALID,23.4298,VALID,143,VALID,1.18008,
2011-10-03, 02:47:04,VALID,998.805,VALID,0,VALID,93.089,VALID,0,VALID,23.4688,VALID,164,VALID,0.985937,
2011-10-03, 02:48:04,VALID,998.804,VALID,0,VALID,92.8601,VALID,0,VALID,23.4671,VALID,164,VALID,0.971484,
2011-10-03, 02:49:04,VALID,998.765,VALID,0,VALID,92.5473,VALID,0,VALID,23.4884,VALID,164,VALID,0.707812,
2011-10-03, 02:50:04,VALID,998.77,VALID,0,VALID,92.2116,VALID,0,VALID,23.4688,VALID,164,VALID,0.773047,
2011-10-03, 02:51:04,VALID,998.731,VALID,0,VALID,91.9293,VALID,0,VALID,23.4493,VALID,164,VALID,0.615625,
2011-10-03, 02:52:04,VALID,998.735,VALID,0,VALID,91.6241,VALID,0,VALID,23.4085,VALID,164,VALID,0.577734,
2011-10-03, 02:53:04,VALID,998.75,VALID,0,VALID,91.4486,VALID,0,VALID,23.3695,VALID,164,VALID,0.639844,
2011-10-03, 02:54:04,VALID,998.761,VALID,0,VALID,91.5631,VALID,0,VALID,23.3908,VALID,164,VALID,0.630469,
2011-10-03, 02:55:04,VALID,998.751,VALID,0,VALID,91.6851,VALID,0,VALID,23.3695,VALID,164,VALID,0.805469,
2011-10-03, 02:56:04,VALID,998.795,VALID,0,VALID,91.8683,VALID,0,VALID,23.4688,VALID,164,VALID,0.527344,
2011-10-03, 02:57:04,VALID,998.781,VALID,0,VALID,91.8988,VALID,0,VALID,23.4671,VALID,164,VALID,0.120312,
2011-10-03, 02:58:04,VALID,998.742,VALID,0,VALID,91.7996,VALID,0,VALID,23.4475,VALID,164,VALID,0.00117188,
2011-10-03, 02:59:04,VALID,998.716,VALID,0,VALID,91.7691,VALID,0,VALID,23.4475,VALID,164,VALID,0.61875,
2011-10-03, 03:00:04,VALID,998.726,VALID,0,VALID,91.7385,VALID,0,VALID,23.4884,VALID,164,VALID,0.920313,
2011-10-03, 03:01:04,VALID,998.74,VALID,0,VALID,91.6394,VALID,0,VALID,23.4866,VALID,164,VALID,1.14531,
2011-10-03, 03:02:04,VALID,998.729,VALID,0,VALID,91.4791,VALID,0,VALID,23.5469,VALID,164,VALID,0.878906,
2011-10-03, 03:03:04,VALID,998.731,VALID,0,VALID,91.296,VALID,0,VALID,23.5061,VALID,164,VALID,0.475781,
2011-10-03, 03:04:04,VALID,998.744,VALID,0,VALID,91.0748,VALID,0,VALID,23.5274,VALID,164,VALID,0.765234,
2011-10-03, 03:05:04,VALID,998.753,VALID,0,VALID,91.2426,VALID,0,VALID,23.5079,VALID,164,VALID,0.811719,
2011-10-03, 03:06:04,VALID,998.742,VALID,0,VALID,91.502,VALID,0,VALID,23.4884,VALID,91,VALID,0.895312,
2011-10-03, 03:07:04,VALID,998.742,VALID,0,VALID,91.6623,VALID,0,VALID,23.4263,VALID,91,VALID,0.823438,
2011-10-03, 03:08:04,VALID,998.73,VALID,0,VALID,91.7385,VALID,0.104696,VALID,23.3677,VALID,91,VALID,0.716406,
2011-10-03, 03:09:04,VALID,998.75,VALID,0,VALID,91.853,VALID,0,VALID,23.2897,VALID,91,VALID,0.428906,
2011-10-03, 03:10:04,VALID,998.752,VALID,0,VALID,91.9445,VALID,0,VALID,23.2312,VALID,91,VALID,0.503906,
2011-10-03, 03:11:04,VALID,998.758,VALID,0,VALID,92.0209,VALID,0,VALID,23.1939,VALID,91,VALID,0.350391,
2011-10-03, 03:12:04,VALID,998.706,VALID,0,VALID,92.0743,VALID,0,VALID,23.1141,VALID,91,VALID,0.0753906,
2011-10-03, 03:13:04,VALID,998.708,VALID,0,VALID,92.204,VALID,0.104696,VALID,23.0751,VALID,91,VALID,0.569922,
2011-10-03, 03:14:04,VALID,998.71,VALID,0,VALID,92.41,VALID,0,VALID,23.0964,VALID,91,VALID,0.558203,
2011-10-03, 03:15:04,VALID,998.679,VALID,0,VALID,92.6083,VALID,0,VALID,23.0769,VALID,91,VALID,0,
2011-10-03, 03:16:04,VALID,998.687,VALID,0,VALID,92.6846,VALID,0.104696,VALID,23.0378,VALID,91,VALID,0,
2011-10-03, 03:17:04,VALID,998.684,VALID,0,VALID,92.7609,VALID,0,VALID,22.9776,VALID,91,VALID,0,
2011-10-03, 03:18:04,VALID,998.697,VALID,0,VALID,92.8372,VALID,0,VALID,22.9988,VALID,91,VALID,0,
2011-10-03, 03:19:04,VALID,998.677,VALID,0,VALID,92.8983,VALID,0,VALID,22.9581,VALID,91,VALID,0,
2011-10-03, 03:20:04,VALID,998.715,VALID,0,VALID,92.9745,VALID,0,VALID,22.9385,VALID,91,VALID,0,
2011-10-03, 03:21:04,VALID,998.717,VALID,0,VALID,93.028,VALID,0,VALID,22.9598,VALID,91,VALID,0,
2011-10-03, 03:22:04,VALID,998.754,VALID,0,VALID,93.1043,VALID,0,VALID,22.9988,VALID,91,VALID,0,
2011-10-03, 03:23:04,VALID,998.797,VALID,0,VALID,93.1805,VALID,0,VALID,22.9971,VALID,91,VALID,0,
2011-10-03, 03:24:04,VALID,998.795,VALID,0,VALID,93.2492,VALID,0,VALID,22.9988,VALID,91,VALID,0,
2011-10-03, 03:25:04,VALID,998.809,VALID,0,VALID,93.2721,VALID,0,VALID,22.9776,VALID,91,VALID,0,
2011-10-03, 03:26:04,VALID,998.813,VALID,0,VALID,93.3103,VALID,0.104696,VALID,22.9598,VALID,91,VALID,0,
2011-10-03, 03:27:04,VALID,998.831,VALID,0,VALID,93.3255,VALID,0,VALID,22.9385,VALID,91,VALID,0,
2011-10-03, 03:28:04,VALID,998.834,VALID,0,VALID,93.3484,VALID,0,VALID,22.9793,VALID,91,VALID,0,
2011-10-03, 03:29:04,VALID,998.863,VALID,0,VALID,93.3942,VALID,0,VALID,22.9385,VALID,91,VALID,0,
2011-10-03, 03:30:04,VALID,998.876,VALID,0,VALID,93.4094,VALID,0,VALID,22.919,VALID,91,VALID,0,
2011-10-03, 03:31:04,VALID,998.888,VALID,0,VALID,93.44,VALID,0.104696,VALID,22.919,VALID,91,VALID,0,
2011-10-03, 03:32:04,VALID,998.896,VALID,0,VALID,93.4781,VALID,0,VALID,22.9385,VALID,91,VALID,0,
2011-10-03, 03:33:04,VALID,998.916,VALID,0,VALID,93.501,VALID,0,VALID,22.9598,VALID,91,VALID,0,
2011-10-03, 03:34:04,VALID,998.921,VALID,0,VALID,93.5163,VALID,0,VALID,22.9385,VALID,91,VALID,0,
2011-10-03, 03:35:04,VALID,998.943,VALID,0,VALID,93.5315,VALID,0,VALID,22.9581,VALID,91,VALID,0,
2011-10-03, 03:36:04,VALID,998.943,VALID,0,VALID,93.5544,VALID,0,VALID,22.9581,VALID,91,VALID,0,
2011-10-03, 03:37:04,VALID,998.914,VALID,0,VALID,93.5849,VALID,0.104696,VALID,22.9776,VALID,91,VALID,0,
2011-10-03, 03:38:04,VALID,998.917,VALID,0,VALID,93.5926,VALID,0,VALID,22.9776,VALID,91,VALID,0,
2011-10-03, 03:39:04,VALID,998.882,VALID,0,VALID,93.6002,VALID,0,VALID,22.9988,VALID,91,VALID,0,
2011-10-03, 03:40:04,VALID,998.889,VALID,0,VALID,93.6307,VALID,0,VALID,22.9385,VALID,91,VALID,0,
2011-10-03, 03:41:04,VALID,998.903,VALID,0,VALID,93.6154,VALID,0,VALID,22.88,VALID,91,VALID,0,
2011-10-03, 03:42:04,VALID,998.929,VALID,0,VALID,93.6307,VALID,0,VALID,22.8605,VALID,91,VALID,0,
2011-10-03, 03:43:04,VALID,998.929,VALID,0,VALID,93.6383,VALID,0.104696,VALID,22.88,VALID,91,VALID,0,
2011-10-03, 03:44:04,VALID,998.95,VALID,0,VALID,93.6307,VALID,0,VALID,22.9013,VALID,91,VALID,0,
2011-10-03, 03:45:04,VALID,998.984,VALID,0,VALID,93.6612,VALID,0,VALID,22.9013,VALID,91,VALID,0,
2011-10-03, 03:46:04,VALID,998.99,VALID,0,VALID,93.6765,VALID,0,VALID,22.88,VALID,91,VALID,0,
2011-10-03, 03:47:04,VALID,999.011,VALID,0,VALID,93.7223,VALID,0,VALID,22.9208,VALID,91,VALID,0,